Location: Assche-ter-Heiden
(50.9174°N, 4.1574°E)
Time: 21:52:19
(UTC+00:00)

Cosmos 773 Rocket - Pass Details

Date: 20 January 2020
Orbit: 746 x 776 km, 74.1° (Epoch: 25 February)

Event Time Altitude Azimuth Distance (km) Brightness Sun altitude
Exits shadow 04:55:05 17° 194° (SSW) 1,880 5.9 -24.8°
Maximum altitude 04:59:11 75° 111° (ESE) 807 4.1 -24.1°
Drops below altitude 10° 05:04:28 10° 27° (NNE) 2,328 6.8 -23.3°
Sets 05:06:51 0° 26° (NNE) 3,256 7.5 -22.9°
